This is the latest recevied weather packets stored in our database for station/object AI4Y. If no packets are shown the sender has not sent any weather packets the latest 10 day(s).
| Time | Temp. | Humidity | Pressure | Rain* | Wind** | Luminosity | Snow |
|---|---|---|---|---|---|---|---|
| 1778178624 | 13.89° C | 98% | 1011.5 hPa | 0.25 mm | - | 129 W/m² | - |
| 1778178024 | 13.89° C | 98% | 1011.5 hPa | 0.25 mm | - | 114 W/m² | - |
| 1778173237 | 15° C | 93% | 1011.4 hPa | 0 mm | - | 50 W/m² | - |
| 1778171417 | 15.56° C | 90% | 1011.3 hPa | 0 mm | - | 68 W/m² | - |
| 1778170218 | 15.56° C | 90% | 1011.3 hPa | 0 mm | - | 208 W/m² | - |
| 1778168418 | 15.56° C | 88% | 1011.7 hPa | 0 mm | - | 104 W/m² | - |
| 1778167239 | 15.56° C | 87% | 1011.7 hPa | 0 mm | - | 189 W/m² | - |
| 1778166016 | 15.56° C | 87% | 1011.6 hPa | 0 mm | - | 71 W/m² | - |
| 1778162420 | 15.56° C | 88% | 1011.1 hPa | 0 mm | - | 151 W/m² | - |
| 1778160017 | 16.11° C | 86% | 1011.5 hPa | 0 mm | - | 167 W/m² | - |
| 1778159417 | 15.56° C | 87% | 1011.7 hPa | 0 mm | - | 140 W/m² | - |
| 1778158837 | 15.56° C | 88% | 1011.7 hPa | 0 mm | - | 59 W/m² | - |
| 1778157018 | 15° C | 89% | 1011.9 hPa | 0 mm | - | 32 W/m² | - |
| 1778155216 | 15° C | 92% | 1011.5 hPa | 0 mm | - | 38 W/m² | - |
| 1778154016 | 15° C | 92% | 1011.2 hPa | 0 mm | - | 38 W/m² | - |
| 1778151016 | 15° C | 95% | 1010.7 hPa | 0 mm | - | 15 W/m² | - |
| 1778149217 | 15° C | 97% | 1011 hPa | 0 mm | - | 1 W/m² | - |
| 1778142017 | 16.67° C | 99% | 1010.6 hPa | 0 mm | - | 0 W/m² | - |
| 1778139016 | 16.67° C | 99% | 1010.9 hPa | 0 mm | - | 0 W/m² | - |
| 1778136017 | 16.67° C | 99% | 1010.4 hPa | 0 mm | - | 0 W/m² | - |
| 1778134217 | 16.67° C | 99% | 1010.5 hPa | 0 mm | - | 0 W/m² | - |
| 1778131818 | 16.67° C | 99% | 1011.2 hPa | 0 mm | - | 0 W/m² | - |
| 1778129416 | 16.67° C | 100% | 1011 hPa | 0 mm | - | 0 W/m² | - |
| 1778128216 | 16.67° C | 99% | 1011.1 hPa | 0.25 mm | - | 0 W/m² | - |
| 1778127616 | 16.67° C | 99% | 1010.9 hPa | 0.25 mm | - | 0 W/m² | - |
* Rain latest hour (hover to see other rain measurements)
** Current wind speed in m/s (hover to see current wind gust speed)